CW1988 Weather Reports


Display with metric or nautical units.
time (UTC)temp
F
wind
direction
speed
MPH
gust
MPH
rain 1hr
in
rain 24hr
in
rain mn
in
humidity
%
barometer
mb
20260507194934 51 181 0.0 1.0 0.00 0.00 0.00 49 1012.3
20260507194430 51 182 0.0 0.0 0.00 0.00 0.00 50 1012.3
20260507193926 52 182 1.0 1.0 0.00 0.00 0.00 48 1012.5
20260507193423 52 182 0.0 0.0 0.00 0.00 0.00 50 1012.5
20260507192920 51 182 0.0 0.0 0.00 0.00 0.00 52 1012.5
20260507192416 51 181 1.0 1.0 0.00 0.00 0.00 53 1012.4
20260507191913 51 182 0.0 0.0 0.00 0.00 0.00 54 1012.2
20260507191409 51 182 0.0 0.0 0.00 0.00 0.00 52 1012.3
20260507190906 51 182 0.0 0.0 0.00 0.00 0.00 50 1012.5
20260507190404 51 182 1.0 1.0 0.00 0.00 0.00 49 1012.2
20260507185903 52 182 0.0 0.0 0.00 0.00 0.00 47 1012.2
20260507185359 53 181 0.0 0.0 0.00 0.00 0.00 48 1012.2
20260507184855 54 182 0.0 1.0 0.00 0.00 0.00 45 1012.2
20260507184353 57 182 0.0 0.0 0.00 0.00 0.00 42 1012.2
20260507183850 57 181 0.0 0.0 0.00 0.00 0.00 42 1012.2
20260507183347 56 182 0.0 0.0 0.00 0.00 0.00 42 1012.3
20260507182844 57 181 0.0 0.0 0.00 0.00 0.00 40 1012.4
20260507182340 57 181 0.0 0.0 0.00 0.00 0.00 39 1012.4
20260507181837 57 182 0.0 0.0 0.00 0.00 0.00 38 1012.6
20260507181332 58 182 0.0 0.0 0.00 0.00 0.00 39 1012.5
20260507180830 57 182 0.0 0.0 0.00 0.00 0.00 38 1012.6
20260507180326 57 182 0.0 0.0 0.00 0.00 0.00 43 1012.7
20260507175822 57 181 1.0 1.0 0.00 0.00 0.00 43 1012.9
20260507175319 57 181 0.0 0.0 0.00 0.00 0.00 45 1013.0
20260507174816 57 182 0.0 0.0 0.00 0.00 0.00 40 1013.0
20260507174314 56 181 0.0 0.0 0.00 0.00 0.00 42 1013.4
20260507173811 55 181 1.0 1.0 0.00 0.00 0.00 41 1013.2
20260507173308 56 181 0.0 0.0 0.00 0.00 0.00 42 1013.4
20260507172805 56 181 0.0 0.0 0.00 0.00 0.00 41 1013.4
20260507172302 56 182 0.0 0.0 0.00 0.00 0.00 44 1013.6
20260507171758 57 182 1.0 2.0 0.00 0.00 0.00 40 1013.6
20260507171255 57 182 0.0 0.0 0.00 0.00 0.00 40 1013.5
20260507170752 56 181 0.0 1.0 0.00 0.00 0.00 44 1013.6
20260507170248 56 181 0.0 0.0 0.00 0.00 0.00 48 1013.7
20260507165743 56 181 0.0 0.0 0.00 0.00 0.00 46 1013.9
20260507165240 55 181 0.0 0.0 0.00 0.00 0.00 47 1014.0
20260507164736 55 182 0.0 1.0 0.00 0.00 0.00 44 1014.0
20260507164233 54 182 0.0 0.0 0.00 0.00 0.00 45 1014.1
20260507163730 54 182 0.0 0.0 0.00 0.00 0.00 43 1014.1
20260507163228 53 182 0.0 0.0 0.00 0.00 0.00 50 1014.3
20260507162724 53 182 0.0 0.0 0.00 0.00 0.00 44 1014.2
20260507162220 53 182 0.0 0.0 0.00 0.00 0.00 45 1014.5
20260507161717 53 181 1.0 1.0 0.00 0.00 0.00 44 1014.5
20260507161213 53 182 1.0 2.0 0.00 0.00 0.00 48 1014.4
20260507160709 53 182 0.0 0.0 0.00 0.00 0.00 44 1014.4
20260507160206 54 181 0.0 0.0 0.00 0.00 0.00 45 1014.4
20260507155702 54 181 0.0 0.0 0.00 0.00 0.00 41 1014.6
20260507155158 53 181 0.0 0.0 0.00 0.00 0.00 44 1014.7
20260507154655 53 182 0.0 1.0 0.00 0.00 0.00 43 1014.8
20260507154153 55 181 0.0 0.0 0.00 0.00 0.00 44 1014.9
20260507153649 56 181 0.0 1.0 0.00 0.00 0.00 44 1014.9
20260507153145 56 180 0.0 1.0 0.00 0.00 0.00 42 1015.0
20260507152642 57 181 0.0 0.0 0.00 0.00 0.00 38 1015.1
20260507152138 54 181 0.0 0.0 0.00 0.00 0.00 41 1015.1
20260507151634 54 181 0.0 0.0 0.00 0.00 0.00 41 1015.4
20260507151131 54 181 0.0 0.0 0.00 0.00 0.00 45 1015.5
20260507150628 55 181 0.0 0.0 0.00 0.00 0.00 41 1015.6
20260507150125 56 180 0.0 1.0 0.00 0.00 0.00 43 1015.3
20260507145625 55 180 0.0 0.0 0.00 0.00 0.00 44 1015.4
20260507145124 55 180 0.0 1.0 0.00 0.00 0.00 42 1015.6
20260507144619 55 180 1.0 1.0 0.00 0.00 0.00 45 1015.4
20260507144118 53 180 0.0 0.0 0.00 0.00 0.00 47 1015.6
20260507143614 51 180 0.0 0.0 0.00 0.00 0.00 50 1016.0
20260507143111 50 181 0.0 0.0 0.00 0.00 0.00 54 1015.8
20260507142607 49 181 0.0 0.0 0.00 0.00 0.00 54 1015.7
20260507142104 49 181 0.0 0.0 0.00 0.00 0.00 56 1015.8
20260507141600 47 181 0.0 1.0 0.00 0.00 0.00 60 1016.1
20260507141057 48 181 1.0 1.0 0.00 0.00 0.00 60 1016.1
20260507140553 48 181 0.0 0.0 0.00 0.00 0.00 63 1016.1
20260507140051 48 181 0.0 0.0 0.00 0.00 0.00 61 1016.2
20260507135548 46 180 1.0 1.0 0.00 0.00 0.00 65 1016.3
20260507135045 43 181 2.0 2.0 0.00 0.00 0.00 69 1016.4
20260507134541 41 181 0.0 0.0 0.00 0.00 0.00 75 1016.6
20260507134037 41 181 0.0 1.0 0.00 0.00 0.00 73 1016.4
20260507133534 41 181 0.0 0.0 0.00 0.00 0.00 70 1016.4
20260507133032 42 181 1.0 1.0 0.00 0.00 0.00 67 1016.5
20260507132528 42 181 0.0 0.0 0.00 0.00 0.00 63 1016.6
20260507132024 43 181 1.0 1.0 0.00 0.00 0.00 62 1016.4
20260507131521 43 181 0.0 0.0 0.00 0.00 0.00 61 1016.3
20260507131019 43 181 0.0 1.0 0.00 0.00 0.00 61 1016.3
20260507130515 43 181 0.0 0.0 0.00 0.00 0.00 62 1016.2
20260507130014 43 181 0.0 0.0 0.00 0.00 0.00 61 1016.4
20260507125512 43 181 0.0 0.0 0.00 0.00 0.00 61 1016.4
20260507125011 43 181 0.0 0.0 0.00 0.00 0.00 61 1016.2
20260507124505 43 181 0.0 0.0 0.00 0.00 0.00 60 1016.1
20260507124003 43 181 0.0 0.0 0.00 0.00 0.00 61 1016.3
20260507123501 43 181 0.0 0.0 0.00 0.00 0.00 61 1016.1
20260507122957 43 181 0.0 0.0 0.00 0.00 0.00 62 1016.2
20260507122452 42 181 0.0 0.0 0.00 0.00 0.00 63 1016.1
20260507121949 42 181 0.0 0.0 0.00 0.00 0.00 63 1016.2
20260507121444 41 181 0.0 0.0 0.00 0.00 0.00 64 1016.2
20260507120941 40 181 0.0 0.0 0.00 0.00 0.00 65 1016.0
20260507120437 39 181 0.0 0.0 0.00 0.00 0.00 67 1016.1
20260507115934 37 181 0.0 0.0 0.00 0.00 0.00 69 1015.8
20260507115430 37 181 0.0 0.0 0.00 0.00 0.00 71 1015.8
20260507114926 35 181 0.0 0.0 0.00 0.00 0.00 74 1015.6
20260507114422 34 181 0.0 0.0 0.00 0.00 0.00 76 1015.8
20260507113920 33 181 0.0 0.0 0.00 0.00 0.00 79 1015.7
20260507113417 33 181 0.0 0.0 0.00 0.00 0.00 79 1015.7
20260507112914 33 182 0.0 0.0 0.00 0.00 0.00 79 1015.6
20260507112412 32 182 0.0 0.0 0.00 0.00 0.00 79 1015.5
20260507111909 32 182 0.0 0.0 0.00 0.00 0.00 78 1015.5
20260507111406 32 182 0.0 0.0 0.00 0.00 0.00 78 1015.4
20260507110902 32 182 0.0 0.0 0.00 0.00 0.00 77 1015.3
20260507110358 32 182 0.0 0.0 0.00 0.00 0.00 77 1015.3
20260507105855 32 182 0.0 0.0 0.00 0.00 0.00 77 1015.4
20260507105352 32 182 0.0 0.0 0.00 0.00 0.00 77 1015.5
20260507104848 32 182 0.0 0.0 0.00 0.00 0.00 78 1015.4
20260507104345 32 182 0.0 0.0 0.00 0.00 0.00 77 1015.4
20260507103841 32 182 0.0 0.0 0.00 0.00 0.00 78 1015.4
20260507103338 32 182 0.0 0.0 0.00 0.00 0.00 78 1015.5
20260507102834 32 182 0.0 0.0 0.00 0.00 0.00 78 1015.4
20260507102331 32 182 0.0 0.0 0.00 0.00 0.00 77 1015.5
20260507101827 32 182 0.0 0.0 0.00 0.00 0.00 78 1015.4
20260507101322 32 182 0.0 0.0 0.00 0.00 0.00 78 1015.4
20260507100819 32 182 0.0 0.0 0.00 0.00 0.00 78 1015.7
20260507100318 32 182 0.0 0.0 0.00 0.00 0.00 78 1015.6
20260507095816 32 182 0.0 0.0 0.00 0.00 0.00 78 1015.7
20260507095311 32 182 0.0 0.0 0.00 0.00 0.00 78 1015.6
20260507094809 32 182 0.0 0.0 0.00 0.00 0.00 77 1015.4
20260507094305 32 182 0.0 0.0 0.00 0.00 0.00 77 1015.3
20260507093802 32 182 0.0 0.0 0.00 0.00 0.00 77 1015.2
20260507093301 32 182 0.0 0.0 0.00 0.00 0.00 77 1015.4
20260507092758 32 182 0.0 0.0 0.00 0.00 0.00 76 1015.2
20260507092254 32 182 0.0 0.0 0.00 0.00 0.00 76 1015.2
20260507091751 32 182 0.0 0.0 0.00 0.00 0.00 75 1015.3
20260507091248 32 182 0.0 0.0 0.00 0.00 0.00 75 1015.2
20260507090747 33 181 0.0 0.0 0.00 0.00 0.00 75 1015.3
20260507090244 33 181 0.0 0.0 0.00 0.00 0.00 75 1015.3
20260507085741 33 182 0.0 0.0 0.00 0.00 0.00 74 1015.5
20260507085238 33 181 0.0 0.0 0.00 0.00 0.00 74 1015.5
20260507084735 33 181 0.0 0.0 0.00 0.00 0.00 73 1015.3
20260507084231 33 181 0.0 0.0 0.00 0.00 0.00 73 1015.3
20260507083729 33 181 0.0 0.0 0.00 0.00 0.00 72 1015.4
20260507083225 33 181 0.0 0.0 0.00 0.00 0.00 73 1015.5
20260507082722 33 181 0.0 0.0 0.00 0.00 0.00 72 1015.4
20260507082217 34 181 0.0 0.0 0.00 0.00 0.00 72 1015.5
20260507081715 34 181 0.0 0.0 0.00 0.00 0.00 72 1015.4
20260507081211 33 181 0.0 0.0 0.00 0.00 0.00 72 1015.1
20260507080707 34 181 0.0 0.0 0.00 0.00 0.00 73 1015.3
20260507080204 34 181 0.0 0.0 0.00 0.00 0.00 72 1015.4
20260507075659 34 181 0.0 0.0 0.00 0.00 0.00 72 1015.4
20260507075155 35 181 0.0 0.0 0.00 0.00 0.00 71 1015.4
20260507074652 35 181 0.0 0.0 0.00 0.00 0.00 70 1015.3
20260507074150 35 181 0.0 0.0 0.00 0.00 0.00 69 1015.3
20260507073646 35 181 0.0 0.0 0.00 0.00 0.00 70 1015.3
20260507073142 35 181 0.0 0.0 0.00 0.00 0.00 70 1015.4
20260507072641 35 181 0.0 0.0 0.00 0.00 0.00 69 1015.4
20260507072138 35 181 0.0 0.0 0.00 0.00 0.00 69 1015.6
20260507071636 35 181 0.0 0.0 0.00 0.00 0.00 70 1015.8
20260507071131 35 181 0.0 0.0 0.00 0.00 0.00 70 1015.7
20260507070629 36 181 0.0 0.0 0.00 0.00 0.00 69 1015.8
20260507070125 36 181 0.0 0.0 0.00 0.00 0.00 68 1015.8
20260507065622 36 181 0.0 0.0 0.00 0.00 0.00 67 1016.0
20260507065119 36 181 0.0 0.0 0.00 0.00 0.00 67 1015.8
20260507064616 36 181 0.0 0.0 0.00 0.00 0.00 66 1015.8
20260507064115 37 181 0.0 0.0 0.00 0.00 0.00 67 1016.2
20260507063612 37 181 0.0 0.0 0.00 0.00 0.00 66 1016.2
20260507063109 37 181 0.0 0.0 0.00 0.00 0.00 67 1016.1
20260507062605 37 181 0.0 0.0 0.00 0.00 0.00 66 1016.2
20260507062103 37 181 0.0 0.0 0.00 0.00 0.00 66 1016.1
20260507061601 37 181 0.0 0.0 0.00 0.00 0.00 65 1016.0
20260507061059 38 181 0.0 0.0 0.00 0.00 0.00 65 1016.2
20260507060556 38 181 0.0 0.0 0.00 0.00 0.00 64 1016.3
20260507060053 38 181 0.0 0.0 0.00 0.00 0.00 64 1016.2
20260507055548 39 181 0.0 0.0 0.00 0.00 0.00 64 1016.2
20260507055045 39 181 0.0 0.0 0.00 0.00 0.00 62 1016.3
20260507054541 39 181 0.0 0.0 0.00 0.00 0.00 62 1016.0
20260507054038 39 181 0.0 0.0 0.00 0.00 0.00 63 1016.2
20260507053536 39 181 0.0 0.0 0.00 0.00 0.00 63 1016.4
20260507053034 39 181 0.0 0.0 0.00 0.00 0.00 63 1016.3
20260507052531 39 181 0.0 0.0 0.00 0.00 0.00 64 1016.3
20260507052028 39 181 0.0 0.0 0.00 0.00 0.00 64 1016.3
20260507051526 39 181 0.0 0.0 0.00 0.00 0.00 64 1016.4
20260507051022 39 181 0.0 0.0 0.00 0.00 0.00 63 1016.3
20260507050518 39 181 0.0 0.0 0.00 0.00 0.00 64 1016.2
20260507050015 39 181 0.0 0.0 0.00 0.00 0.00 63 1016.3
20260507045512 40 181 0.0 0.0 0.00 0.00 0.00 62 1016.2
20260507045010 40 181 0.0 0.0 0.00 0.00 0.00 61 1016.4
20260507044506 40 181 0.0 0.0 0.00 0.00 0.00 61 1016.3
20260507044003 40 181 0.0 0.0 0.00 0.00 0.00 60 1016.4
20260507043459 41 181 0.0 0.0 0.00 0.00 0.00 59 1016.4
20260507042955 41 181 0.0 0.0 0.00 0.00 0.00 60 1016.3
20260507042452 41 181 0.0 0.0 0.00 0.00 0.00 58 1016.3
20260507041948 41 181 0.0 0.0 0.00 0.00 0.00 57 1016.3
20260507041445 41 181 0.0 0.0 0.00 0.00 0.00 57 1016.5
20260507040942 42 181 0.0 0.0 0.00 0.00 0.00 56 1016.6
20260507040437 42 181 0.0 0.0 0.00 0.00 0.00 55 1016.6
20260507035933 42 181 0.0 0.0 0.00 0.00 0.00 55 1016.5
20260507035431 42 181 0.0 0.0 0.00 0.00 0.00 55 1016.5
20260507034927 42 181 0.0 0.0 0.00 0.00 0.00 55 1016.7
20260507034424 42 181 0.0 0.0 0.00 0.00 0.00 55 1016.6
20260507033922 43 181 0.0 0.0 0.00 0.00 0.00 55 1016.6
20260507033420 43 181 0.0 0.0 0.00 0.00 0.00 54 1016.7
20260507032916 43 181 0.0 0.0 0.00 0.00 0.00 54 1016.8
20260507032413 43 181 0.0 0.0 0.00 0.00 0.00 54 1016.7
20260507031909 43 181 0.0 0.0 0.00 0.00 0.00 53 1016.6
20260507031406 43 181 0.0 0.0 0.00 0.00 0.00 53 1016.6
20260507030903 44 181 0.0 0.0 0.00 0.00 0.00 52 1016.5
20260507030400 44 181 0.0 0.0 0.00 0.00 0.00 52 1016.7
20260507025857 44 181 0.0 0.0 0.00 0.00 0.00 52 1016.5
20260507025354 44 181 0.0 0.0 0.00 0.00 0.00 51 1016.3
20260507024852 44 181 0.0 0.0 0.00 0.00 0.00 52 1016.5
20260507024349 44 181 0.0 0.0 0.00 0.00 0.00 52 1016.6
20260507023844 45 181 0.0 0.0 0.00 0.00 0.00 51 1016.3
20260507023342 45 181 0.0 0.0 0.00 0.00 0.00 51 1016.4
20260507022839 45 181 0.0 1.0 0.00 0.00 0.00 50 1016.2
20260507022335 45 181 1.0 2.0 0.00 0.00 0.00 49 1016.1
20260507021831 45 181 1.0 1.0 0.00 0.00 0.00 50 1016.1
20260507021327 45 181 0.0 1.0 0.00 0.00 0.00 50 1016.1
20260507020825 46 181 0.0 0.0 0.00 0.00 0.00 51 1016.0
20260507020321 46 181 0.0 0.0 0.00 0.00 0.00 49 1016.1
20260507015819 46 181 0.0 0.0 0.00 0.00 0.00 50 1016.0
20260507015317 46 181 0.0 0.0 0.00 0.00 0.00 49 1015.7
20260507014813 46 181 0.0 0.0 0.00 0.00 0.00 48 1015.5
20260507014309 46 181 0.0 0.0 0.00 0.00 0.00 48 1015.5
20260507013806 47 181 0.0 0.0 0.00 0.00 0.00 48 1015.4
20260507013303 47 181 0.0 0.0 0.00 0.00 0.00 48 1015.4
20260507012800 47 181 1.0 1.0 0.00 0.00 0.00 47 1015.4
20260507012256 47 181 0.0 0.0 0.00 0.00 0.00 47 1015.5
20260507011754 48 181 2.0 3.0 0.00 0.00 0.00 47 1015.3
20260507011250 48 181 1.0 1.0 0.00 0.00 0.00 46 1015.3
20260507010750 48 181 0.0 0.0 0.00 0.00 0.00 47 1015.2
20260507010246 48 181 0.0 0.0 0.00 0.00 0.00 47 1015.1
20260507005744 48 181 0.0 0.0 0.00 0.00 0.00 47 1015.0
20260507005240 49 181 0.0 1.0 0.00 0.00 0.00 46 1014.9
20260507004736 49 181 1.0 1.0 0.00 0.00 0.00 46 1014.8
20260507004234 49 181 0.0 1.0 0.00 0.00 0.00 46 1014.9
20260507003730 49 181 0.0 0.0 0.00 0.00 0.00 46 1014.8
20260507003225 49 181 0.0 1.0 0.00 0.00 0.00 45 1014.9
20260507002722 49 181 0.0 0.0 0.00 0.00 0.00 44 1014.6
20260507002218 50 181 1.0 2.0 0.00 0.00 0.00 44 1014.7
20260507001715 50 181 0.0 1.0 0.00 0.00 0.00 44 1014.4
20260507001212 50 181 0.0 1.0 0.00 0.00 0.00 43 1014.5
20260507000708 50 181 0.0 1.0 0.00 0.00 0.00 44 1014.6
20260507000205 50 181 0.0 0.0 0.00 0.00 0.00 43 1014.6
20260506235701 50 181 0.0 0.0 0.00 0.00 0.00 44 1014.4
20260506235157 51 181 0.0 0.0 0.00 0.00 0.00 44 1014.5
20260506234654 51 181 0.0 1.0 0.00 0.00 0.00 43 1014.4
20260506234151 51 181 0.0 0.0 0.00 0.00 0.00 42 1014.4
20260506233648 51 181 0.0 0.0 0.00 0.00 0.00 42 1014.4
20260506233145 51 181 0.0 0.0 0.00 0.00 0.00 43 1014.3
20260506232641 52 181 0.0 1.0 0.00 0.00 0.00 43 1014.3
20260506232136 52 181 0.0 0.0 0.00 0.00 0.00 42 1014.4
20260506231634 52 181 0.0 0.0 0.00 0.00 0.00 42 1014.3
20260506231132 52 181 1.0 2.0 0.00 0.00 0.00 42 1014.4
20260506230629 52 181 0.0 0.0 0.00 0.00 0.00 42 1014.3
20260506230126 52 181 0.0 1.0 0.00 0.00 0.00 40 1014.2
20260506225622 52 181 0.0 0.0 0.00 0.00 0.00 42 1014.4
20260506225119 52 181 1.0 1.0 0.00 0.00 0.00 42 1014.3
20260506224616 52 181 0.0 0.0 0.00 0.00 0.00 42 1014.2
20260506224112 52 181 0.0 0.0 0.00 0.00 0.00 41 1014.2
20260506223608 52 181 1.0 2.0 0.00 0.00 0.00 40 1014.2
20260506223104 52 181 0.0 0.0 0.00 0.00 0.00 41 1014.1
20260506222602 52 181 0.0 0.0 0.00 0.00 0.00 41 1014.1
20260506222058 52 181 0.0 1.0 0.00 0.00 0.00 41 1014.0
20260506221556 52 181 0.0 1.0 0.00 0.00 0.00 40 1013.9
20260506221053 52 181 0.0 0.0 0.00 0.00 0.00 40 1014.1
20260506220549 52 181 0.0 0.0 0.00 0.00 0.00 40 1013.9
20260506220045 52 181 1.0 1.0 0.00 0.00 0.00 40 1014.1
20260506215542 52 181 0.0 0.0 0.00 0.00 0.00 40 1013.8
20260506215037 53 182 0.0 1.0 0.00 0.00 0.00 39 1013.8
20260506214535 53 181 0.0 0.0 0.00 0.00 0.00 40 1013.8
20260506214032 53 181 1.0 1.0 0.00 0.00 0.00 39 1013.9
20260506213530 53 181 1.0 1.0 0.00 0.00 0.00 39 1013.8
20260506213027 53 181 0.0 0.0 0.00 0.00 0.00 40 1013.9
20260506212523 53 181 0.0 0.0 0.00 0.00 0.00 39 1013.8
20260506212018 54 181 0.0 1.0 0.00 0.00 0.00 40 1013.9
20260506211514 54 181 0.0 0.0 0.00 0.00 0.00 38 1013.8
20260506211012 54 181 1.0 2.0 0.00 0.00 0.00 38 1013.9
20260506210508 55 181 1.0 1.0 0.00 0.00 0.00 39 1013.9
20260506210005 54 181 0.0 0.0 0.00 0.00 0.00 42 1013.9
20260506205501 54 181 0.0 1.0 0.00 0.00 0.00 39 1013.9
20260506204957 54 181 0.0 0.0 0.00 0.00 0.00 41 1013.9
20260506204455 53 181 0.0 0.0 0.00 0.00 0.00 40 1013.7
20260506203952 54 181 0.0 1.0 0.00 0.00 0.00 38 1013.8
20260506203450 54 181 1.0 1.0 0.00 0.00 0.00 38 1014.0
20260506202947 54 181 0.0 1.0 0.00 0.00 0.00 38 1014.1
20260506202444 54 181 0.0 0.0 0.00 0.00 0.00 40 1014.2
20260506201940 54 181 0.0 0.0 0.00 0.00 0.00 38 1014.0
20260506201438 54 181 0.0 0.0 0.00 0.00 0.00 39 1014.1
20260506200934 53 181 0.0 0.0 0.00 0.00 0.00 39 1014.2
20260506200431 54 181 1.0 2.0 0.00 0.00 0.00 38 1014.1
20260506195927 54 181 1.0 1.0 0.00 0.00 0.00 39 1014.4
20260506195424 54 181 1.0 1.0 0.00 0.00 0.00 40 1014.2